Home   Weather   Mason   Past weeks

Flag for USA Past Weather in Mason, Ohio, USA — Yesterday and Last 2 Weeks

Now
78 °F

Clear.


Feels Like: 79 °F
Forecast: 53 / 70 °F
Wind: 6 mph from South

Location: Butler County Regional Airport

Current Time: Apr 26, 2017 at 9:56:32 pm

Latest Report: Apr 26, 2017 at 8:53 pm


Visibility: 10 mi

Pressure: 29.57 "Hg

Humidity: 39%

Dew Point: 51 °F

Location of MasonLocation

Past Weather in Mason — Graph

°F

Mason Temperature Yesterday

Maximum temperature yesterday: 77 °F (at 2:53 pm)
Minimum temperature yesterday: 48 °F (at 5:53 am)
Average temperature yesterday: 64 °F

High & Low Weather Summary for the Past Weeks

 TemperatureHumidityPressure
High84 °F (Apr 15, 2:53 pm)100% (Apr 12, 7:53 am)30.40 "Hg (Apr 12, 7:53 am)
Low40 °F (Apr 12, 6:53 am)25% (Apr 13, 3:53 pm)29.56 "Hg (Apr 26, 7:53 pm)
Average62 °F69%30.06 "Hg
* Reported Apr 11 7:53 pm — Apr 26 7:53 pm, Mason, Weather by CustomWeather, © 2017

Note: Actual official high and low records may vary slightly from our data, if they occured in-between our weather recording intervals... More about our weather records

Advertising

Mason Weather History for the Previous 24 Hours

Scroll right to see more
 ConditionsComfort  
Time TempWeatherWind HumidityBarometerVisibility
7:53 pm
Wed, Apr 26
80 °FSunny.9 mph41%29.56 "Hg10 mi
6:53 pm82 °FSunny.6 mph41%29.56 "Hg10 mi
5:53 pm83 °FSunny.10 mph40%29.57 "Hg10 mi
4:53 pm84 °FSunny.13 mph43%29.58 "Hg10 mi
3:53 pm84 °FSunny.13 mph45%29.59 "Hg10 mi
2:53 pm83 °FSunny.9 mph46%29.60 "Hg10 mi
1:53 pm81 °FSunny.8 mph49%29.62 "Hg10 mi
12:53 pm79 °FSunny.10 mph52%29.64 "Hg10 mi
11:53 am75 °FSunny.6 mph60%29.68 "Hg10 mi
10:53 am74 °FSunny.6 mph62%29.67 "Hg10 mi
9:53 am71 °FSunny.5 mph66%29.71 "Hg10 mi
8:53 am66 °FSunny.No wind75%29.70 "Hg10 mi
7:53 am60 °FSunny.5 mph93%29.70 "Hg10 mi
6:53 am56 °FSunny.3 mph100%29.70 "Hg9 mi
5:53 am56 °FClear.5 mph97%29.70 "Hg10 mi
4:53 am52 °FClear.No wind100%29.70 "Hg7 mi
3:53 am54 °FClear.No wind97%29.70 "Hg10 mi
2:53 am56 °FClear.No wind100%29.70 "Hg10 mi
1:53 am59 °FClear.No wind93%29.69 "Hg10 mi
12:53 am60 °FClear.3 mph90%29.70 "Hg10 mi
11:53 pm
Tue, Apr 25
61 °FClear.No wind87%29.69 "Hg10 mi
10:53 pm68 °FClear.No wind70%29.68 "Hg10 mi
9:53 pm64 °FPassing clouds.No wind81%29.68 "Hg10 mi
Weather by CustomWeather, © 2017

See weather overviewHow to use our weather pages